Погода в Первомайском

Россия / Республика Калмыкия     45°52′52″N   44°11′27″E
темп.,
°C
ветер,
м/с
пор.,
м/с
влажн.,
%
обл.,
%
осадки,
мм/ч
давл.,
гПа
погр.,
м
18 апреля, вс
вс1800:00+10з2580100 0.0 1022245
03:00+10зсз1281100 0.0 1021113
06:00+10св1179100 0.0 102133
09:00+10ююз0184100 0.8 1020133
12:00+11вюв2381100 0.3 1019327
15:00+14вюв237199 0.4 1018666
18:00+13вюв2285100 0.7 101840
21:00+12вюв3488100 0.9 101881
19 апреля, пн
пн1900:00+10юв119297 0.4 101812
03:00+11юв2390100 0.4 101785
06:00+11ююв4690100 0.5 1017177
09:00+13ю4782100 1.4 1017366
12:00+16юз6784100 0.5 1016690
15:00+16юз4581100 0.8 1015541
18:00+14ююз3596100 0.8 1016204
21:00+13ююв2398100 3.4 101697
20 апреля, вт
вт2000:00+13юв4597100 0.8 1015158
03:00+12вюв51092100 0.8 1014289
06:00+12вюв71582100 0.0 1011451
09:00+15вюв111969100 0.1 1008733
12:00+20юв121650100 0.0 10071049
15:00+21вюв101351100 0.1 10071054
18:00+18вюв111754100 0.1 1006615
21:00+15юв51166100 0.6 1011334
21 апреля, ср
ср2100:00+14зюз2273100 0.0 101262
03:00+14зсз5988100 0.2 1014392
06:00+12з4682100 0.3 1017275
09:00+11з4680100 4.4 1019817
12:00+12зсз4571100 0.6 1020736
15:00+11юз3379100 0.8 1021368
18:00+10юв2290100 7.4 1022173
21:00+9ююз1294100 7.8 102443
22 апреля, чт
чт2200:00+9з1194100 0.0 102313
03:00+8сз229294 0.0 102416
06:00+10св1287100 0.0 102560
09:00+13св3572100 0.0 1024499
12:00+15св3459100 0.0 10241057
15:00+17всв3352100 0.1 10241334
18:00+15всв136897 0.1 1024104
21:00+11сз228684 0.2 102426